Regional Weather Roundup
Issued by NWS

Home | Current Version | Previous Version | Graphics & Text | Print | Product List | Glossary Off
Versions: 1 2 3 4 5 6 7 8 9 10 11 12 13 14 15 16 17 18 19 20 21 22 23 24 25 26 27 28 29 30 31 32 33 34 35 36 37 38 39 40 41 42 43 44 45 46 47 48 49 50

000
ASUS43 KMPX 312010
RWRMN
WEATHER ROUNDUP FOR MINNESOTA
NATIONAL WEATHER SERVICE TWIN CITIES/CHANHASSEN MN
300 PM CDT THU JUL 31 2014


NOTE: "FAIR" INDICATES FEW OR NO CLOUDS BELOW 12,000 FEET WITH NO
SIGNIFICANT WEATHER AND/OR OBSTRUCTIONS TO VISIBILITY. N/A MEANS
CURRENT SKY AND/OR WEATHER CONDITIONS ARE NOT AVAILABLE.

MNZ060>063-068>070-312100-
   Twin Cities Metro

CITY           SKY/WX    TMP DP  RH WIND       PRES   REMARKS
TWIN CITIES    FAIR      83  50  31 NW8       30.02S
ST PAUL        PTSUNNY   82  53  36 SW12      30.01S
CRYSTAL        SUNNY     82  52  35 SW8       30.00F
BLAINE         MOSUNNY   82  55  39 W9        30.01F
LAKEVILLE      SUNNY     79  55  44 W3        30.03S
EDEN PRAIRIE   SUNNY     82  55  39 W9        30.01F
SOUTH ST PAUL  SUNNY     82  52  35 W6        30.01S
LAKE ELMO      FAIR      79  57  47 W5        30.02F
$$
MNZ001>005-007-008-013>017-022>024-027-028-312100-
   Northwest Minnesota

CITY           SKY/WX    TMP DP  RH WIND       PRES   REMARKS
BEMIDJI        SUNNY     78  54  42 N8        30.01S
HALLOCK        SUNNY     81  57  44 NW8       30.00S
ROSEAU           N/A     81  57  44 N6        30.00F
WARROAD        SUNNY     79  57  47 E6        30.01S
THIEF RVR FALL SUNNY     79  57  47 NW7       30.02S
CROOKSTON      SUNNY     81  61  50 NW5       30.02S
FOSSTON        MOSUNNY   79  61  53 NW7       30.03S
DETROIT LAKES  SUNNY     79  55  44 NW12      30.05S
MOORHEAD       SUNNY     81  55  41 N5        30.03S
PARK RAPIDS    MOSUNNY   79  57  46 NW13      30.02S
$$
MNZ006-009>011-018-025>026-312100-
   North Central Minnesota

CITY           SKY/WX    TMP DP  RH WIND       PRES   REMARKS
BAUDETTE       SUNNY     77  53  43 NW8       30.01S
FLAG ISLAND    SUNNY     75  52  43 N8        29.99S
INTL FALLS     SUNNY     78  53  41 N8        29.99S
WASKISH        SUNNY     79  61  53 W3        30.00S
BIG FORK       SUNNY    N/A N/A N/A NW2       30.00S
LONGVILLE      SUNNY     79  63  57 NW5       30.01S
GRAND RAPIDS   PTSUNNY   79  57  47 NW9       30.00S
CRANE LAKE     SUNNY     73  52  46 NW7       29.99S
ORR            SUNNY     77  50  38 NW8       29.97S
COOK           SUNNY     75  54  46 NW7       29.99S
$$
MNZ012-019>021-037-312100-
   Northeast Minnesota

CITY           SKY/WX    TMP DP  RH WIND       PRES   REMARKS
DULUTH         MOSUNNY   78  54  43 NW8       29.98S
ELY            SUNNY     73  46  38 NW10      29.98S
HIBBING        SUNNY     80  53  39 N12       29.99S
EVELETH        MOSUNNY   77  52  41 W13       29.99F
DULUTH HARBOR  SUNNY     79  57  47 CALM      29.96S
TWO HARBORS    SUNNY     77  52  41 W6        29.94F
SILVER BAY     SUNNY     77  55  47 CALM      29.94S
GRAND MARAIS     N/A     56  49  77 W8        29.93S
G MARAIS ARPRT SUNNY     72  45  37 W6        29.98S
$$
MNZ029>031-032-039>041-046>048-054>057-064-312100-
   West Central Minnesota

CITY           SKY/WX    TMP DP  RH WIND       PRES   REMARKS
FERGUS FALLS   SUNNY     79  54  41 W6        30.03S
WHEATON        SUNNY     77  57  50 NW6       30.06S
MORRIS         SUNNY     82  59  44 NW7       30.04S
ALEXANDRIA     SUNNY     78  53  41 VRB7      30.06S
ELBOW LAKE     FAIR      78  60  54 NW5       30.04S
WADENA         SUNNY     79  59  50 NW7       30.03S
GLENWOOD       SUNNY     81  48  32 NW6       30.06S
APPLETON       MOSUNNY   82  52  34 NW8       30.04S
BENSON         SUNNY     81  57  44 N9        30.04S
ORTONVILLE     SUNNY     81  54  39 NW8       30.05S
MADISON        MOSUNNY   82  57  42 NW6       30.05S
WILLMAR        FAIR      79  54  41 NW9       30.05F
$$
MNZ033>034-036-042>043-049>051-058-059-312100-
   Central Minnesota

CITY           SKY/WX    TMP DP  RH WIND       PRES   REMARKS
ST CLOUD       PTSUNNY   85  54  34 NW8       30.02S
SAUK CENTRE    FAIR      80  54  41 SW6       30.04S
PAYNESVILLE    SUNNY     78  50  37 W6        30.04F
AITKIN         SUNNY     82  63  51 W6        29.99S
PINE RIVER     MOSUNNY   81  59  47 W6        30.03F
BRAINERD       SUNNY     81  57  43 W14       30.01S
STAPLES        MOSUNNY   81  55  41 NW9       30.02S
LONG PRAIRIE   FAIR      77  55  47 NW5       30.04S
LITTLE FALLS   MOSUNNY   79  52  38 W6        30.02F
LITCHFIELD     MOSUNNY   81  57  44 W9        30.04F
BUFFALO        SUNNY     80  49  34 W8        30.04S
MAPLE LAKE     SUNNY     80  54  39 NW5       30.04S
$$
MNZ037-044-045-052-053-312100-
   East Central Minnesota

CITY           SKY/WX    TMP DP  RH WIND       PRES   REMARKS
PRINCETON      MOSUNNY   82  57  42 W8        30.01F
MORA           MOSUNNY   77  57  50 W7        30.02S
CAMBRIDGE      MOSUNNY   84  61  45 W9        29.99S
RUSH CITY      SUNNY     80  59  49 W9        30.00S
MOOSE LAKE     SUNNY     77  61  57 NW3       29.97S
HINCKLEY       MOCLDY    79  63  57 W9        29.99S
CLOQUET        SUNNY     79  54  41 NW12      29.98S
MCGREGOR       PTSUNNY   79  59  50 W7        30.00S
$$
MNZ071>073-080-081-089-090-097-098-312100-
   Southwest Minnesota

CITY           SKY/WX    TMP DP  RH WIND       PRES   REMARKS
MONTEVIDEO     MOSUNNY   84  57  39 CALM      30.05S
GRANITE FALLS  MOSUNNY   80  57  46 W8        30.06S
CANBY          MOSUNNY   79  52  39 N7        30.07S
MARSHALL       SUNNY     81  52  36 N8        30.05S
REDWOOD FALLS  MOSUNNY   83  52  34 N7        30.04F
OLIVIA         MOSUNNY   81  54  39 W9        30.04S
PIPESTONE      MOSUNNY   79  57  47 W3        30.07F
WINDOM         MOSUNNY   81  55  41 CALM      30.06S
WORTHINGTON    SUNNY     77  55  47 SW7       30.09S
JACKSON        MOSUNNY   77  54  44 W3        30.07F
TRACY          MOSUNNY   80  56  42 CALM      30.06S
SLAYTON        MOSUNNY   79  53  40 CALM      30.08S
$$
MNZ065>067-074>077-082>085-091>093-312100-
   South Central Minnesota

CITY           SKY/WX    TMP DP  RH WIND       PRES   REMARKS
MANKATO        SUNNY     79  54  41 W8        30.05S
NEW ULM        MOSUNNY   79  54  41 CALM      30.04F
ST JAMES       SUNNY     82  48  30 W5        30.06S
FAIRMONT       MOSUNNY   81  54  39 N7        30.06S
GLENCOE        SUNNY     81  52  36 W7        30.03S
FARIBAULT      SUNNY     84  46  26 SW8       30.04F
OWATONNA       MOSUNNY   81  54  39 W9        30.05S
WASECA         MOSUNNY   77  52  41 W6        30.07F
ALBERT LEA     MOSUNNY   81  52  36 NW5       30.06S
$$
MNZ078>079-086>088-094>096-312100-
   Southeast Minnesota

CITY           SKY/WX    TMP DP  RH WIND       PRES   REMARKS
ROCHESTER      MOSUNNY   79  57  46 NW9       30.06F
RED WING       MOSUNNY   81  52  36 W9        30.01S
STANTON        MOSUNNY   81  55  41 W7        30.01F
DODGE CENTER   MOSUNNY   79  54  41 W7        30.06S
WINONA         SUNNY     81  54  39 W7        30.02F
AUSTIN         SUNNY     75  52  43 W5        30.06S
PRESTON        MOSUNNY   76  60  57 NW10      30.06F
$$
ABBREVIATIONS USED IN REMARKS
   TC - TEMPERATURES IN CELSIUS
  WCI - WIND CHILL INDEX
   HX - HEAT INDEX
  VSB - VISIBILITY
$$



USA.gov is the U.S. government's official web portal to all federal, state and local government web resources and services.